STARLINK-5275, 55398

Orbit data source: Space-Track

STARLINK-5275, 55398 is a payload satellite owned by SpaceX/Seattle (US) in LEO that was launched on Tue, 31 Jan 2023 UTC via an FALCON 9 launch vehicle from the Air Force Western Test Range (AFWTR). Payload-class satellites include a variety of spacecraft equipped with specific instruments for various scientific and technological missions. These include communications satellites like Starlink; space stations such as the ISS; scientific satellites like the Hubble; Earth observation satellites from companies like Planet Labs, Umbra, and HawkEye 360; GPS; miniature CubeSats for education and research; and military/defense satellites.

Loading next visibility...
Identifier
55398, 2023-014H
Orbit
LEO
Country
Flag of USUS
Related business
Manufacturer
SpaceX/Seattle
Mission
Operational Commercial Communications
Bus & Motor
STARLINK, Unknown motor
Mass
305 kg wet, ~290 kg dry
Launch date (UTC)
2023-01-31 (3 years ago)
Launch vehicle
FALCON 9
Launch site
Air Force Western Test Range (AFWTR)
Object type
Payload
Rocket body
Debris
Shape & HBR
Box + 1 Pan, 10.1 m
Radar Cross Section
13.562 m², Large (>1 m²)

Expand to show TLE details & history
Last TLE update: 2 days ago

TLE from 2 days ago
0 STARLINK-5275
1 55398U 23014H   26171.41526125  .00000551  00000-0  53962-4 0  9993
2 55398  69.9992 165.4088 0003619 268.7308  91.3437 14.98324825187448
Epoch: 2026-06-20T09:57Z
TLE epoch observation values (Epoch: 2026-06-20T09:57:58.572Z)
Latitude
-0°
Longitude
107.28454°
Altitude
574.556 km
Speed
7.574 km/s
True Right ascension
11h 01m 38s
True Declination
0° 00' 00"
Sunlit
Object was in daylight at epoch
Visualization orbit readout
Latitude
Unknown
Longitude
Unknown
Altitude
Unknown
Speed
Unknown
Apparent Right ascension
Unknown
Apparent Declination
Unknown
Sunlit
N/A
Visualization observer readout
Local Sidereal Time
21:30:19
Azimuth
Unknown
Elevation
Unknown
Doppler factor
Unknown
Orbital elements
Apogee altitude
572.535 km
Perigee altitude
567.506 km
Semi-major axis
6,948.157 km
Eccentricity
0.00036
Inclination
69.9992°
RAAN
165.4088°
Arg. of periapsis
268.7308°
True anomaly
91.38516°
Mean anomaly
91.3437°
Eccentric anomaly
91.36443°
Mean motion
3.74747 °/min
Orbital period
96.06 mins
BSTAR
0.000053962
Loading maneuver chart data...
Computing Atmospheric mass density...

Documentation

Showing up to 5 results
|